Location: Gombori
(14.9797°N, 2.9419°W)
Time: 09:56:50
(UTC+00:00)

ATLAS 3B R/B - Pass Details

Date: 29 July 2021
Orbit: 1001 x 1194 km, 63.8° (Epoch: 09 September)

Event Time Altitude Azimuth Distance (km) Brightness Sun altitude
Rises 20:49:17 0° 357° (N) 3,983 6.1 -28.6°
Reaches altitude 10° 20:52:42 10° 12° (NNE) 3,052 5.3 -29.3°
Enters shadow 20:56:43 21° 45° (NE) 2,358 4.3 -30.1°
